Temp
17 17 17 17 17 18 18 18 18 18 18 18 18 18 18 18 19 18 18 17 16 16 16 16 17 18 17 17 16 16 15 15 15
17 16 16 16 17 18 18 18 18 19 19 19 19 18 18 18 18 19 18 17 16 16 16 15 16 16 16 16 16 16 15 15 15
16 16 16 16 17 17 18 18 19 19 18 18 19 18 18 18 18 18 18 17 16 16 17 17 16 15 15 15 15 15 15 14 14
16 16 17 18 19 18 18 18 18 18 18 18 18 18 18 18 18 18 18 18 17 18 18 17 17 17 17 17 16 16 14 14 14
18 18 18 19 19 19 19 19 18 18 18 18 18 18 18 18 18 18 18 17 18 18 17 17 17 17 17 17 17 16 15 14 14
18 18 18 19 19 19 19 19 19 19 19 19 19 19 18 18 18 18 18 17 17 17 17 17 16 16 16 17 17 16 16 15 15
18 18 18 18 18 18 18 18 19 19 19 19 19 19 19 19 19 18 18 18 17 17 17 17 16 16 16 16 16 16 15 14 14
18 18 18 18 18 18 18 18 18 18 18 18 19 19 19 19 19 19 18 18 17 17 17 17 16 16 16 16 16 16 15 15 14
18 18 18 18 18 18 18 18 18 18 18 18 18 19 19 19 19 19 19 18 18 17 17 16 16 16 16 16 15 15 15 15 15
18 18 18 18 18 18 18 18 18 18 19 19 19 19 19 19 19 19 19 19 18 18 18 17 17 17 16 15 15 15 15 15 15
18 18 19 18 19 19 19 19 19 19 19 19 19 19 19 19 19 19 19 19 19 18 18 18 18 17 16 16 16 15 15 15 15
19 19 19 19 19 19 19 19 18 18 18 19 19 19 19 19 19 19 19 19 18 18 18 18 18 17 17 16 16 15 15 15 15
19 19 19 19 19 19 19 19 19 19 19 19 19 19 19 19 19 19 19 18 18 18 18 18 17 17 16 16 16 15 15 15 15
19 20 19 19 19 19 19 19 19 19 19 19 20 20 19 19 19 19 18 18 18 18 18 18 17 17 16 16 15 14 14 14 14
19 19 19 19 19 19 19 20 19 19 19 19 19 19 19 18 18 19 18 18 18 18 18 18 17 17 16 15 15 14 14 13 13
20 19 19 19 19 19 19 19 19 19 18 18 18 18 19 18 18 18 18 18 17 17 17 17 16 16 15 15 15 14 14 14 12
20 19 19 19 19 19 19 18 18 19 19 18 17 14 16 17 17 17 17 17 16 15 15 16 15 15 14 14 15 15 14 14 13
19 18 18 18 18 18 19 18 18 18 17 17 17 14 13 13 17 16 16 15 15 15 15 14 14 13 13 12 12 12 13 13 12
20 19 18 17 17 17 18 17 17 16 15 15 16 15 15 14 13 15 14 14 14 13 13 12 12 12 12 12 12 11 11 12 11
18 18 17 16 16 16 17 16 15 14 14 14 14 14 14 14 13 12 12 12 12 11 11 11 11 11 10 11 10 10 10 11 11
Height
828 829 830 832 832 834 835 837 838 839 840 841 841 841 842 841 841 841 841 841 841 841 840 841 841 840 839 838 838 837 836 835 834
830 831 832 834 834 836 838 839 840 841 843 843 843 843 843 843 843 843 843 843 843 843 841 841 842 841 840 840 840 839 837 836 834
831 832 833 835 836 838 839 841 842 843 844 844 844 845 846 845 845 845 845 845 844 844 842 842 842 841 841 840 839 838 837 837 836
832 833 834 836 837 839 840 842 843 845 846 845 846 846 846 846 846 847 846 845 846 845 844 843 843 842 841 840 839 838 838 837 836
833 834 836 837 838 840 842 843 844 846 847 847 846 847 847 847 847 848 847 846 847 846 845 844 844 843 842 841 840 839 839 838 837
835 835 837 838 840 841 843 844 845 846 847 847 847 847 847 848 848 847 847 847 848 847 846 845 845 844 843 841 841 840 839 839 838
837 838 838 839 840 842 842 844 845 846 847 847 847 848 848 848 848 847 847 847 848 847 846 846 845 844 843 842 841 840 840 840 839
837 838 839 840 841 842 843 843 844 846 847 847 847 847 847 847 848 847 847 847 847 847 846 846 845 844 843 842 841 840 840 839 839
837 838 839 839 840 842 842 843 844 845 846 847 847 847 847 847 847 847 847 847 847 846 846 845 845 843 842 841 841 841 840 840 839
836 838 839 839 840 841 842 842 843 844 844 845 846 846 846 846 846 846 846 846 846 846 845 845 844 843 842 842 841 841 840 840 839
836 836 838 838 840 841 841 842 843 842 843 843 844 844 844 844 844 845 845 845 844 844 844 843 843 841 841 841 841 840 839 839 838
835 835 836 837 838 839 840 840 841 842 842 842 842 842 843 843 843 842 842 842 842 841 841 841 841 841 841 840 839 839 838 836 836
833 833 834 836 837 838 839 838 839 841 841 841 841 841 840 840 840 840 840 839 838 838 838 839 840 840 839 838 838 837 836 836 835
830 831 833 834 835 836 837 837 838 838 839 839 839 839 838 838 837 837 836 836 835 835 835 835 835 837 838 837 836 836 836 835 834
827 828 830 831 833 834 835 835 835 836 836 836 837 836 836 835 834 833 832 832 832 832 832 832 833 834 835 836 836 836 835 834 833
825 826 828 829 831 831 832 833 833 833 834 834 833 833 833 831 830 829 828 828 828 829 830 830 833 833 835 835 835 835 835 834 832
822 823 825 827 828 829 830 831 831 831 832 833 832 831 830 828 827 827 826 826 827 828 829 830 832 832 833 833 833 833 833 832 831
818 822 823 824 825 826 826 828 830 830 830 831 833 832 834 829 827 827 827 828 829 829 829 830 831 832 832 832 831 831 831 829 828
811 817 820 821 822 822 823 825 826 827 827 828 829 828 829 829 829 826 826 827 829 829 829 830 830 832 832 831 831 831 830 828 826
806 807 816 821 821 820 820 821 822 824 824 826 827 826 826 826 827 828 826 827 827 828 827 829 830 831 831 829 830 830 829 827 824
Wind_Speed
18 18 19 18 18 18 18 18 16 16 14 13 11 10 11 12 13 12 13 12 11 10 10 10 10 10 10 10 11 10 9 11 10
18 18 17 17 17 17 16 16 16 15 12 10 8 9 9 9 11 12 11 10 10 9 10 8 7 6 6 5 6 7 8 8 9
18 17 17 15 14 14 14 13 14 12 11 8 8 8 6 7 8 10 9 9 8 8 9 8 7 5 5 4 5 5 6 7 8
18 17 17 16 15 14 13 12 12 10 9 7 7 6 4 4 5 6 7 8 6 7 8 8 7 7 6 6 6 6 6 7 7
17 16 14 14 13 12 11 10 10 8 7 5 3 3 3 2 2 2 4 6 5 6 6 7 7 7 7 8 8 7 7 7 7
15 14 12 11 10 10 8 8 7 6 6 4 4 3 1 2 4 3 2 3 5 6 6 5 5 6 7 8 8 7 7 6 6
12 11 10 9 8 7 6 5 5 5 4 2 2 3 3 3 4 3 4 2 4 6 6 5 5 5 6 7 7 7 7 6 5
12 10 10 8 7 6 5 5 4 4 2 2 3 4 4 5 5 5 5 5 5 6 8 7 7 7 7 6 6 6 7 6 5
12 9 8 8 7 7 6 4 4 3 3 3 3 4 5 6 7 6 6 7 7 7 7 9 9 9 9 8 7 7 6 6 5
11 10 8 7 8 7 6 5 4 4 5 7 7 7 8 8 8 9 9 9 9 9 8 9 8 9 10 10 10 10 10 8 7
12 11 10 9 8 7 6 5 6 5 5 5 6 7 8 9 9 10 11 11 12 12 11 10 10 8 8 10 11 10 13 13 12
14 12 12 10 9 8 7 7 6 5 5 6 7 8 8 10 12 13 13 12 12 13 15 13 13 11 8 9 8 8 8 11 15
16 13 12 10 9 9 8 6 6 8 8 8 8 10 11 11 12 13 13 15 16 14 13 14 14 11 9 8 7 6 8 9 7
17 15 13 11 10 9 8 8 8 8 9 10 12 12 13 15 17 19 18 18 17 15 10 10 12 13 10 7 5 7 10 9 8
19 16 14 13 11 9 10 9 10 11 12 13 13 13 14 16 18 20 20 17 14 13 14 11 10 12 7 5 5 7 9 11 11
18 17 14 13 13 12 9 11 13 12 12 9 12 16 19 22 19 17 16 15 12 10 11 10 8 5 3 2 4 7 11 13 12
21 18 16 15 12 10 10 10 11 13 15 11 11 3 8 11 4 5 6 2 5 10 11 10 8 7 7 5 2 8 11 15 14
22 20 18 16 14 13 12 13 14 17 14 13 6 2 3 3 3 1 3 2 7 8 9 10 9 7 5 0 3 7 13 17 11
17 14 16 18 15 11 9 11 14 15 16 14 13 14 8 2 3 1 3 3 5 8 8 9 8 6 4 0 3 7 12 14 11
19 18 16 14 12 10 13 14 12 12 13 12 9 9 10 11 5 3 2 2 4 7 9 9 7 6 1 3 5 8 12 14 9
Wind_Direction
133 132 131 134 133 133 136 137 132 124 117 111 106 105 88 71 67 68 72 69 70 69 75 76 70 63 52 55 55 48 40 33 29
138 134 130 134 134 137 140 142 139 135 127 118 99 111 95 68 70 63 66 70 72 70 72 74 70 64 61 48 36 20 24 29 28
142 138 134 133 131 135 138 147 148 143 134 113 101 124 94 77 73 62 59 59 65 62 59 59 60 54 48 35 25 20 22 30 31
146 143 140 138 135 137 138 144 153 150 143 119 109 116 101 83 71 57 48 47 44 42 44 47 43 37 34 31 27 21 24 32 38
150 148 147 143 141 141 142 144 153 162 164 159 149 117 94 36 10 5 31 37 20 23 29 30 26 24 23 24 23 23 28 28 36
155 154 154 151 149 149 150 153 161 172 180 192 193 206 262 338 321 271 314 22 352 359 3 6 4 8 13 15 15 13 15 15 21
161 159 156 158 157 159 158 167 178 187 176 185 187 193 275 314 313 301 280 315 309 335 339 333 331 343 356 0 2 2 1 1 7
173 172 176 177 179 176 181 183 196 184 203 248 249 255 282 299 320 298 292 286 284 298 320 315 312 322 329 335 335 342 349 343 348
180 186 194 193 192 194 183 184 188 213 253 278 289 286 297 307 303 310 298 282 282 284 293 294 299 307 307 304 303 313 328 334 336
200 202 200 195 197 191 199 210 221 240 261 272 281 288 292 294 297 298 294 287 278 280 284 289 291 292 293 285 284 292 301 299 300
214 208 211 212 214 215 225 238 244 249 263 281 292 298 297 296 296 292 292 292 284 276 274 284 295 294 288 311 312 299 279 283 280
222 222 226 228 228 231 232 234 246 261 269 284 291 292 295 297 304 294 290 291 293 278 269 277 287 301 308 316 326 348 337 288 262
225 228 228 223 225 228 234 238 255 269 282 289 288 287 299 295 294 297 292 292 290 285 271 272 277 281 289 305 347 357 338 340 331
222 228 228 225 227 232 238 245 261 271 278 285 294 291 289 292 293 296 296 288 285 288 280 269 254 252 278 293 332 355 353 354 345
226 226 227 221 225 228 239 251 259 268 274 281 285 292 303 299 296 292 292 290 282 267 262 266 232 233 242 285 314 340 350 351 346
222 220 214 213 223 236 247 254 257 266 272 283 297 306 299 294 294 293 292 287 272 258 235 194 191 192 239 301 350 347 347 344 342
224 219 217 220 232 228 248 250 262 276 282 286 309 318 307 276 320 354 9 1 185 173 171 176 181 182 183 157 321 326 331 329 321
222 226 230 228 223 227 244 260 266 276 271 280 265 302 250 321 270 13 24 125 176 181 184 180 182 186 188 177 44 2 341 333 323
206 229 235 233 236 230 248 268 269 270 273 277 258 249 249 249 311 29 97 200 190 198 190 186 183 184 187 162 352 360 351 337 328
192 199 222 236 239 251 263 262 266 264 267 265 259 252 252 251 238 276 223 141 180 197 192 191 186 184 201 343 358 7 355 337 320